This is the latest recevied weather packets stored in our database for station/object W5ITZ. If no packets are shown the sender has not sent any weather packets the latest 10 day(s).
| Time | Temp. | Humidity | Pressure | Rain* | Wind** | Luminosity | Snow |
|---|---|---|---|---|---|---|---|
| 1788140335 | 84° F | 79% | 760.3 mmHg | 0 in | - | 0 W/m² | - |
| 1788140030 | 84° F | 78% | 760.3 mmHg | 0 in | - | 0 W/m² | - |
| 1788139724 | 84° F | 78% | 760.2 mmHg | 0 in | - | 0 W/m² | - |
| 1788139420 | 85° F | 77% | 760.1 mmHg | 0 in | - | 0 W/m² | - |
| 1788139120 | 85° F | 77% | 760.1 mmHg | 0 in | - | 0 W/m² | - |
| 1788138815 | 85° F | 76% | 760.3 mmHg | 0 in | - | 0 W/m² | - |
| 1788138511 | 85° F | 76% | 760.4 mmHg | 0 in | - | 0 W/m² | - |
| 1788138210 | 86° F | 75% | 760.2 mmHg | 0 in | - | 0 W/m² | - |
| 1788137906 | 86° F | 74% | 760.6 mmHg | 0 in | - | 1 W/m² | - |
| 1788137602 | 86° F | 74% | 760.3 mmHg | 0 in | - | 3 W/m² | - |
| 1788137296 | 86° F | 73% | 760.3 mmHg | 0 in | - | 5 W/m² | - |
| 1788136992 | 87° F | 72% | 760.4 mmHg | 0 in | - | 9 W/m² | - |
| 1788136688 | 87° F | 71% | 760.2 mmHg | 0 in | - | 12 W/m² | - |
| 1788136384 | 87° F | 70% | 760.2 mmHg | 0 in | - | 17 W/m² | - |
| 1788136083 | 87° F | 69% | 760.3 mmHg | 0 in | - | 23 W/m² | - |
| 1788135777 | 88° F | 69% | 760.1 mmHg | 0 in | - | 29 W/m² | - |
| 1788135473 | 88° F | 68% | 760.1 mmHg | 0 in | - | 34 W/m² | - |
| 1788135168 | 88° F | 67% | 760 mmHg | 0 in | - | 41 W/m² | - |
| 1788134865 | 89° F | 66% | 760.1 mmHg | 0 in | - | 48 W/m² | - |
| 1788134565 | 89° F | 68% | 760.2 mmHg | 0 in | - | 55 W/m² | - |
| 1788134264 | 89° F | 67% | 760 mmHg | 0 in | - | 64 W/m² | - |
| 1788133958 | 89° F | 65% | 759.9 mmHg | 0 in | - | 74 W/m² | - |
| 1788133653 | 89° F | 63% | 760 mmHg | 0 in | - | 84 W/m² | - |
| 1788133350 | 89° F | 63% | 760 mmHg | 0 in | - | 95 W/m² | - |
| 1788133045 | 90° F | 62% | 759.9 mmHg | 0 in | - | 107 W/m² | - |
* Rain latest hour (hover to see other rain measurements)
** Current wind speed in m/s (hover to see current wind gust speed)